DW4879 Weather Reports


Display with metric or nautical units.
time (UTC)temp
F
wind
direction
speed
MPH
gust
MPH
rain 1hr
in
rain 24hr
in
rain mn
in
humidity
%
barometer
mb
20260505140501 52 277 2.0 5.0 0.00 0.00 0.00 39 1014.9
20260505140108 52 284 2.0 7.0 0.00 0.00 0.00 39 1015.0
20260505124504 51 290 4.0 9.0 0.00 0.00 0.00 42 1015.1
20260505124058 51 311 2.0 9.0 0.00 0.00 0.00 42 1015.3
20260505123502 51 313 4.0 9.0 0.00 0.00 0.00 42 1015.2
20260505123100 51 288 4.0 8.0 0.00 0.00 0.00 42 1015.2
20260505122606 51 304 3.0 11.0 0.00 0.00 0.00 42 1015.1
20260505122054 51 265 6.0 11.0 0.00 0.00 0.00 42 1015.0
20260505121545 51 300 4.0 8.0 0.00 0.00 0.00 42 1015.0
20260505121053 51 294 3.0 9.0 0.00 0.00 0.00 42 1015.1
20260505120542 51 294 4.0 9.0 0.00 0.00 0.00 43 1015.1
20260505120100 51 325 3.0 7.0 0.00 0.00 0.00 42 1015.2
20260505115554 51 296 2.0 4.0 0.00 0.00 0.00 42 1015.2
20260505115103 51 306 2.0 6.0 0.00 0.00 0.00 41 1015.2
20260505114504 52 305 3.0 10.0 0.00 0.00 0.00 41 1015.2
20260505114011 52 273 5.0 10.0 0.00 0.00 0.00 41 1015.1
20260505113503 52 304 6.0 11.0 0.00 0.00 0.00 41 1015.0
20260505113009 52 271 6.0 11.0 0.00 0.00 0.00 41 1015.0
20260505112606 52 294 6.0 10.0 0.00 0.00 0.00 41 1015.1
20260505112055 52 257 4.0 11.0 0.00 0.00 0.00 40 1015.1
20260505111603 52 261 4.0 8.0 0.00 0.00 0.00 40 1015.1
20260505111010 52 297 3.0 7.0 0.00 0.00 0.00 39 1015.0
20260505110513 52 242 1.0 8.0 0.00 0.00 0.00 39 1015.0
20260505102009 53 282 4.0 7.0 0.00 0.00 0.00 35 1015.0
20260505101605 53 282 3.0 6.0 0.00 0.00 0.00 35 1015.0
20260505101008 53 286 2.0 8.0 0.00 0.00 0.00 35 1015.1
20260505100513 53 272 3.0 8.0 0.00 0.00 0.00 35 1015.0
20260505100104 53 293 3.0 8.0 0.00 0.00 0.00 35 1014.9
20260505095502 54 272 3.0 10.0 0.00 0.00 0.00 35 1014.9
20260505095007 54 287 5.0 10.0 0.00 0.00 0.00 35 1014.7
20260505094603 54 302 5.0 11.0 0.00 0.00 0.00 35 1014.8
20260505094003 54 246 6.0 12.0 0.00 0.00 0.00 34 1014.9
20260505093511 54 292 6.0 14.0 0.00 0.00 0.00 34 1014.8
20260505093017 54 289 7.0 14.0 0.00 0.00 0.00 34 1014.8
20260505092522 54 321 7.0 14.0 0.00 0.00 0.00 34 1014.8
20260505092029 54 286 6.0 14.0 0.00 0.00 0.00 34 1014.7
20260505091534 54 273 8.0 13.0 0.00 0.00 0.00 34 1014.7
20260505091041 55 260 6.0 18.0 0.00 0.00 0.00 33 1014.8
20260505090548 55 291 8.0 16.0 0.00 0.00 0.00 33 1014.7
20260505090039 55 292 9.0 15.0 0.00 0.00 0.00 33 1014.9
20260505085547 55 273 6.0 12.0 0.00 0.00 0.00 33 1014.8
20260505085057 55 301 5.0 14.0 0.00 0.00 0.00 33 1015.0
20260505084602 55 200 7.0 14.0 0.00 0.00 0.00 33 1015.0
20260505084054 55 306 6.0 13.0 0.00 0.00 0.00 33 1015.0
20260505083600 55 265 8.0 14.0 0.00 0.00 0.00 32 1015.0
20260505083105 55 298 7.0 14.0 0.00 0.00 0.00 32 1015.1
20260505082508 55 273 7.0 16.0 0.00 0.00 0.00 31 1015.0
20260505082014 55 281 8.0 16.0 0.00 0.00 0.00 31 1015.1
20260505081521 55 279 5.0 11.0 0.00 0.00 0.00 31 1015.2
20260505081029 56 272 6.0 12.0 0.00 0.00 0.00 30 1015.2
20260505080533 56 244 6.0 12.0 0.00 0.00 0.00 29 1015.2
20260505080039 56 270 7.0 14.0 0.00 0.00 0.00 28 1015.3
20260505075544 56 291 9.0 14.0 0.00 0.00 0.00 28 1015.1
20260505075050 56 280 6.0 10.0 0.00 0.00 0.00 27 1015.2
20260505074555 56 255 5.0 11.0 0.00 0.00 0.00 26 1015.3
20260505074046 56 315 5.0 15.0 0.00 0.00 0.00 26 1015.2
20260505073554 56 284 7.0 15.0 0.00 0.00 0.00 26 1015.2
20260505073043 56 260 8.0 17.0 0.00 0.00 0.00 25 1015.3
20260505072551 56 279 6.0 15.0 0.00 0.00 0.00 25 1015.2
20260505072057 56 259 7.0 18.0 0.00 0.00 0.00 25 1015.4
20260505071548 56 260 7.0 18.0 0.00 0.00 0.00 25 1015.4
20260505071056 56 305 5.0 13.0 0.00 0.00 0.00 24 1015.4
20260505070602 56 324 7.0 15.0 0.00 0.00 0.00 24 1015.3
20260505070005 56 258 8.0 15.0 0.00 0.00 0.00 23 1015.4
20260505065601 56 273 8.0 11.0 0.00 0.00 0.00 23 1015.4
20260505065004 56 273 4.0 8.0 0.00 0.00 0.00 22 1015.4
20260505064602 56 288 3.0 9.0 0.00 0.00 0.00 22 1015.3
20260505064105 56 257 3.0 9.0 0.00 0.00 0.00 22 1015.2
20260505063556 56 265 3.0 9.0 0.00 0.00 0.00 21 1015.2
20260505063047 57 279 4.0 9.0 0.00 0.00 0.00 22 1015.1
20260505062555 57 270 4.0 8.0 0.00 0.00 0.00 22 1015.1
20260505062100 57 265 3.0 8.0 0.00 0.00 0.00 21 1015.1
20260505061505 57 276 3.0 9.0 0.00 0.00 0.00 20 1015.0
20260505061059 57 271 4.0 9.0 0.00 0.00 0.00 20 1015.1
20260505060503 57 286 4.0 7.0 0.00 0.00 0.00 20 1014.9
20260505060040 58 281 4.0 11.0 0.00 0.00 0.00 20 1014.9
20260505055547 58 284 4.0 11.0 0.00 0.00 0.00 20 1015.0
20260505055055 58 267 5.0 11.0 0.00 0.00 0.00 20 1015.0
20260505054600 58 281 5.0 10.0 0.00 0.00 0.00 19 1014.9
20260505054053 58 257 3.0 11.0 0.00 0.00 0.00 19 1014.9
20260505053556 58 244 3.0 14.0 0.00 0.00 0.00 19 1014.9
20260505053109 59 176 4.0 14.0 0.00 0.00 0.00 19 1014.9
20260505052538 59 222 5.0 12.0 0.00 0.00 0.00 19 1014.9
20260505052044 59 225 3.0 8.0 0.00 0.00 0.00 18 1014.9
20260505051550 59 224 5.0 11.0 0.00 0.00 0.00 19 1015.0
20260505051100 59 194 5.0 11.0 0.00 0.00 0.00 19 1015.0
20260505050549 59 217 5.0 12.0 0.00 0.00 0.00 19 1014.9
20260505050104 59 258 5.0 9.0 0.00 0.00 0.00 20 1014.6
20260505041552 60 280 2.0 6.0 0.00 0.00 0.00 20 1014.5
20260505041057 60 280 3.0 8.0 0.00 0.00 0.00 21 1014.4
20260505040501 60 288 4.0 8.0 0.00 0.00 0.00 21 1014.5
20260505040056 60 309 3.0 8.0 0.00 0.00 0.00 22 1014.5
20260505035604 61 292 4.0 8.0 0.00 0.00 0.00 22 1014.4
20260505035054 61 295 4.0 7.0 0.00 0.00 0.00 23 1014.3
20260505034618 61 292 2.0 4.0 0.00 0.00 0.00 23 1014.3
20260505034051 61 275 2.0 9.0 0.00 0.00 0.00 23 1014.3
20260505033543 61 284 5.0 10.0 0.00 0.00 0.00 23 1014.4
20260505033053 61 297 4.0 13.0 0.00 0.00 0.00 24 1014.3
20260505032553 61 271 2.0 6.0 0.00 0.00 0.00 24 1014.2
20260505032106 61 271 1.0 3.0 0.00 0.00 0.00 24 1014.1
20260505031555 62 259 1.0 3.0 0.00 0.00 0.00 24 1014.0
20260505031058 62 248 0.0 8.0 0.00 0.00 0.00 25 1013.8
20260505030551 62 268 1.0 8.0 0.00 0.00 0.00 24 1013.9
20260505030055 62 258 0.0 3.0 0.00 0.00 0.00 25 1013.8
20260505025546 62 255 1.0 3.0 0.00 0.00 0.00 24 1013.8
20260505025037 62 287 1.0 3.0 0.00 0.00 0.00 24 1013.8
20260505024544 62 234 0.0 3.0 0.00 0.00 0.00 24 1013.7
20260505024035 62 234 0.0 3.0 0.00 0.00 0.00 24 1013.8
20260505023541 63 199 1.0 3.0 0.00 0.00 0.00 24 1013.8
20260505023049 63 261 0.0 2.0 0.00 0.00 0.00 23 1013.6
20260505022555 63 261 0.0 2.0 0.00 0.00 0.00 23 1013.6
20260505022046 64 257 0.0 2.0 0.00 0.00 0.00 23 1013.5
20260505021554 64 257 0.0 3.0 0.00 0.00 0.00 23 1013.6
20260505021059 64 257 0.0 3.0 0.00 0.00 0.00 23 1013.6
20260505020502 64 263 0.0 2.0 0.00 0.00 0.00 23 1013.5
20260505020105 64 266 0.0 3.0 0.00 0.00 0.00 23 1013.4
20260505015554 65 261 1.0 3.0 0.00 0.00 0.00 22 1013.5
20260505015100 65 284 0.0 2.0 0.00 0.00 0.00 23 1013.4
20260505014504 65 279 0.0 3.0 0.00 0.00 0.00 23 1013.4
20260505014058 65 309 0.0 3.0 0.00 0.00 0.00 23 1013.4
20260505013502 65 273 0.0 3.0 0.00 0.00 0.00 23 1013.3
20260505013101 65 277 0.0 7.0 0.00 0.00 0.00 22 1013.5
20260505012603 65 311 3.0 7.0 0.00 0.00 0.00 22 1013.5
20260505012053 66 297 1.0 6.0 0.00 0.00 0.00 22 1013.4
20260505011603 66 267 3.0 6.0 0.00 0.00 0.00 22 1013.4
20260505011051 66 269 2.0 5.0 0.00 0.00 0.00 22 1013.5
20260505010558 66 273 3.0 4.0 0.00 0.00 0.00 22 1013.5
20260505010105 66 296 1.0 4.0 0.00 0.00 0.00 22 1013.5
20260505005557 66 284 1.0 4.0 0.00 0.00 0.00 22 1013.5
20260505005104 66 227 2.0 7.0 0.00 0.00 0.00 22 1013.7
20260505004604 67 296 3.0 7.0 0.00 0.00 0.00 22 1013.7
20260505004059 67 289 2.0 7.0 0.00 0.00 0.00 22 1013.6
20260505003605 67 219 2.0 7.0 0.00 0.00 0.00 22 1013.9
20260505003008 67 297 3.0 8.0 0.00 0.00 0.00 22 1013.7
20260505002604 67 293 4.0 8.0 0.00 0.00 0.00 22 1013.9
20260505002007 67 317 4.0 6.0 0.00 0.00 0.00 22 1013.9
20260505001629 67 315 4.0 6.0 0.00 0.00 0.00 22 1014.0
20260505001003 67 311 2.0 10.0 0.00 0.00 0.00 21 1014.1
20260505000557 67 281 3.0 10.0 0.00 0.00 0.00 21 1014.1
20260505000104 67 300 6.0 10.0 0.00 0.00 0.00 21 1014.1
20260504235556 67 284 1.0 10.0 0.00 0.00 0.00 22 1014.0
20260504235049 67 292 5.0 10.0 0.00 0.00 0.00 22 1014.0
20260504234556 68 306 4.0 8.0 0.00 0.00 0.00 22 1014.1
20260504234044 68 309 2.0 8.0 0.00 0.00 0.00 22 1014.1
20260504233534 68 310 3.0 8.0 0.00 0.00 0.00 22 1014.1
20260504233055 68 293 2.0 10.0 0.00 0.00 0.00 21 1014.2
20260504232546 68 355 7.0 10.0 0.00 0.00 0.00 22 1014.2
20260504232054 68 325 3.0 11.0 0.00 0.00 0.00 21 1014.1
20260504231600 68 302 5.0 11.0 0.00 0.00 0.00 22 1014.2
20260504231002 69 324 3.0 8.0 0.00 0.00 0.00 21 1014.3
20260504230509 69 336 3.0 8.0 0.00 0.00 0.00 21 1014.3
20260504230101 68 315 0.0 9.0 0.00 0.00 0.00 22 1014.3
20260504225556 68 305 1.0 9.0 0.00 0.00 0.00 22 1014.4
20260504225100 68 305 5.0 12.0 0.00 0.00 0.00 21 1014.4
20260504224505 68 330 7.0 12.0 0.00 0.00 0.00 22 1014.3
20260504224010 68 290 6.0 12.0 0.00 0.00 0.00 22 1014.3
20260504223605 68 278 8.0 12.0 0.00 0.00 0.00 22 1014.3
20260504223007 68 321 2.0 10.0 0.00 0.00 0.00 21 1014.3
20260504222604 68 288 2.0 10.0 0.00 0.00 0.00 21 1014.5
20260504222003 68 294 4.0 10.0 0.00 0.00 0.00 21 1014.5
20260504221559 67 272 5.0 15.0 0.00 0.00 0.00 21 1014.4
20260504221106 68 251 5.0 15.0 0.00 0.00 0.00 21 1014.6
20260504220507 68 309 9.0 13.0 0.00 0.00 0.00 21 1014.6
20260504220105 68 306 4.0 10.0 0.00 0.00 0.00 21 1014.8
20260504215556 69 277 4.0 11.0 0.00 0.00 0.00 21 1014.8
20260504215102 69 269 7.0 12.0 0.00 0.00 0.00 21 1014.9
20260504214507 68 329 8.0 13.0 0.00 0.00 0.00 21 1014.9
20260504214059 69 303 8.0 13.0 0.00 0.00 0.00 21 1014.9
20260504213503 69 316 3.0 10.0 0.00 0.00 0.00 21 1014.9
20260504213058 69 203 2.0 10.0 0.00 0.00 0.00 21 1015.1
20260504212604 68 243 2.0 12.0 0.00 0.00 0.00 21 1015.0
20260504212057 68 292 8.0 12.0 0.00 0.00 0.00 22 1015.0
20260504211546 68 317 5.0 12.0 0.00 0.00 0.00 22 1015.4
20260504211053 68 325 6.0 12.0 0.00 0.00 0.00 21 1015.4
20260504210545 69 309 7.0 14.0 0.00 0.00 0.00 22 1015.5
20260504210052 69 302 6.0 14.0 0.00 0.00 0.00 21 1015.6
20260504205556 70 293 3.0 8.0 0.00 0.00 0.00 21 1015.6
20260504205104 70 252 3.0 8.0 0.00 0.00 0.00 21 1015.5
20260504204502 70 225 3.0 11.0 0.00 0.00 0.00 21 1015.9
20260504204010 70 227 6.0 11.0 0.00 0.00 0.00 21 1015.9
20260504203502 70 199 1.0 10.0 0.00 0.00 0.00 22 1016.0
20260504203009 69 207 6.0 10.0 0.00 0.00 0.00 22 1015.9
20260504202605 69 238 5.0 10.0 0.00 0.00 0.00 22 1015.9
20260504202006 69 190 4.0 10.0 0.00 0.00 0.00 23 1016.1
20260504201601 69 202 1.0 9.0 0.00 0.00 0.00 23 1016.1
20260504201053 70 223 5.0 12.0 0.00 0.00 0.00 22 1016.2
20260504200600 70 199 5.0 10.0 0.00 0.00 0.00 21 1016.1
20260504200054 69 311 4.0 9.0 0.00 0.00 0.00 22 1016.3
20260504195557 69 254 2.0 11.0 0.00 0.00 0.00 23 1016.3
20260504195102 68 234 4.0 11.0 0.00 0.00 0.00 23 1016.4
20260504194506 68 273 3.0 11.0 0.00 0.00 0.00 24 1016.5
20260504194101 67 208 5.0 11.0 0.00 0.00 0.00 24 1016.4
20260504193506 67 270 5.0 11.0 0.00 0.00 0.00 26 1016.4
20260504193109 67 298 6.0 12.0 0.00 0.00 0.00 25 1016.5
20260504192551 67 226 4.0 12.0 0.00 0.00 0.00 26 1016.5
20260504192058 67 219 5.0 10.0 0.00 0.00 0.00 25 1016.4
20260504191615 67 285 2.0 11.0 0.00 0.00 0.00 26 1016.4
20260504191007 67 280 5.0 12.0 0.00 0.00 0.00 26 1016.5
20260504190604 67 267 4.0 11.0 0.00 0.00 0.00 26 1016.4
20260504190006 66 259 4.0 10.0 0.00 0.00 0.00 27 1016.6
20260504185600 66 188 3.0 9.0 0.00 0.00 0.00 27 1016.8
20260504185002 65 217 4.0 9.0 0.00 0.00 0.00 28 1016.7
20260504184557 65 286 3.0 10.0 0.00 0.00 0.00 29 1016.8
20260504184048 65 281 4.0 9.0 0.00 0.00 0.00 29 1016.8
20260504183557 65 259 3.0 8.0 0.00 0.00 0.00 30 1016.9
20260504183046 64 277 3.0 13.0 0.00 0.00 0.00 30 1016.9
20260504182555 64 284 4.0 13.0 0.00 0.00 0.00 30 1016.9
20260504182103 64 290 5.0 12.0 0.00 0.00 0.00 29 1017.0
20260504181506 64 304 4.0 12.0 0.00 0.00 0.00 30 1017.1
20260504181058 64 249 5.0 10.0 0.00 0.00 0.00 29 1017.1
20260504180607 64 298 5.0 14.0 0.00 0.00 0.00 29 1017.3
20260504180058 64 274 4.0 12.0 0.00 0.00 0.00 29 1017.3
20260504175504 63 241 6.0 12.0 0.00 0.00 0.00 29 1017.3
20260504175057 63 268 4.0 11.0 0.00 0.00 0.00 30 1017.1
20260504174605 63 288 4.0 11.0 0.00 0.00 0.00 31 1017.2
20260504174056 63 202 5.0 11.0 0.00 0.00 0.00 31 1017.1
20260504173550 62 212 2.0 8.0 0.00 0.00 0.00 32 1017.2
20260504173054 62 330 3.0 9.0 0.00 0.00 0.00 34 1017.2
20260504172600 62 275 4.0 9.0 0.00 0.00 0.00 34 1017.3
20260504172004 61 188 4.0 9.0 0.00 0.00 0.00 34 1017.4
20260504171559 61 261 2.0 10.0 0.00 0.00 0.00 35 1017.3
20260504171003 61 281 4.0 10.0 0.00 0.00 0.00 36 1017.3
20260504170508 60 267 4.0 11.0 0.00 0.00 0.00 37 1017.3
20260504160124 57 304 3.0 8.0 0.00 0.00 0.00 45 1017.4
20260504151050 56 294 1.0 2.0 0.00 0.00 0.00 47 1017.7
20260504150539 56 271 0.0 2.0 0.00 0.00 0.00 46 1017.6